Location: Oberstdorf
(47.4188°N, 10.2969°E)
Time: 02:49:14
(UTC+01:00)

ISS - Pass Details

Date: 17 November 2017
Orbit: 401 x 407 km, 51.6° (Epoch: 25 November)

Event Time Altitude Azimuth Distance (km) Brightness Sun altitude
Exits shadow 06:21:17 10° 243° (WSW) 1,462 -1.4 -11.0°
Reaches altitude 10° 06:21:23 10° 241° (WSW) 1,451 -1.4 -11.0°
Maximum altitude 06:22:09 11° 227° (SW) 1,413 -1.4 -10.9°
Drops below altitude 10° 06:22:54 10° 214° (SSW) 1,448 -1.2 -10.8°
Sets 06:26:25 0° 173° (S) 2,300 0.3 -10.2°
